Location: Buckeye Ditch
(40.9104°N, 122.9517°W)
Time: 15:14:10
(UTC+00:00)

A-11 Canister half - Pass Details

Date: 22 May 2025
Orbit: 1515 x 1684 km, 47.2° (Epoch: 14 June)

Event Time Altitude Azimuth Distance (km) Brightness Sun altitude
Rises 07:02:35 0° 234° (SW) 4,800 11.4 -26.8°
Reaches altitude 10° 07:05:43 10° 233° (SW) 3,793 10.8 -26.9°
Maximum altitude 07:15:18 80° 148° (SSE) 1,576 8.8 -27.4°
Drops below altitude 10° 07:24:37 10° 64° (ENE) 3,692 11.1 -27.8°
Sets 07:27:37 0° 63° (ENE) 4,667 11.7 -27.9°
